Hourly Data Report for October 05, 2017

All times are specified in Local Standard Time (LST). Add 1 hour to adjust for Daylight Saving Time where and when it is observed.

ARMSTRONG (AUT)
ONTARIO

50°17'37.000" N
88°54'19.000" W
322.50 m
6040325
71841
WYW

Download Data

Hourly Data (October 2017)
Hourly Data Report for October 5, 2017
Temp Definition
°C
Dew Point Temp Definition
°C
Rel Hum Definition
%
Wind Dir Definition
10's deg

Wind Spd Definition
km/h
Visibility Definition
km
Stn Press Definition
kPa
Hmdx Definition


Wind Chill Definition


Weather Definition


TIME
00:00 8.8 4.5 74 27 14   97.56     LegendNANA
01:00 7.9 4.2 77 27 12   97.53     LegendNANA
02:00 7.5 4.2 80 27 12   97.53     LegendNANA
03:00 7.8 4.5 80 27 11   97.50     LegendNANA
04:00 7.8 4.5 80 27 11   97.51     LegendNANA
05:00 7.9 4.5 79 28 14   97.53     LegendNANA
06:00 7.0 4.1 82 28 13   97.54     LegendNANA
07:00 6.9 4.2 83 27 13   97.55     LegendNANA
08:00 7.0 4.2 83 27 11   97.57     LegendNANA
09:00 8.0 4.4 78 28 15   97.62     LegendNANA
10:00 7.3 2.4 71 32 15   97.64     LegendNANA
11:00 7.9 1.2 63 31 16   97.63     LegendNANA
12:00 8.9 -0.2 53 30 25   97.61     LegendNANA
13:00 10.9 -0.2 46 29 20   97.60     LegendNANA
14:00 10.3 -1.5 44 30 20   97.60     LegendNANA
15:00 10.5 -1.7 43 29 16   97.60     LegendNANA
16:00 10.2 -2.4 41 31 23   97.63     LegendNANA
17:00 10.1 -1.7 44 31 17   97.63     LegendNANA
18:00 8.2 -2.2 48 30 13   97.63     LegendNANA
19:00 4.1 -1.4 67 28 3   97.63     LegendNANA
20:00 0.5 -1.7 85   0   97.64     LegendNANA
21:00 -1.0 -2.5 89 28 2   97.65   -2 LegendNANA
22:00 -1.8 -2.8 92 0 1   97.65   -2 LegendNANA
23:00 -1.8 -2.8 93 27 5   97.66   -4 LegendNANA

Notes on Data Quality.

Legend

  • E = Estimated
  • M = Missing
  • NA = Not Available
  • ‡ = Partner data that is not subject to review by the National Climate Archives
Date modified: